Home   Weather   Vancouver   Past weeks

Flag for USA Past Weather in Vancouver, Washington, USA — Yesterday and Last 2 Weeks

Now
42 °F

Light rain. Mostly cloudy.


Feels Like: 39 °F
Forecast: 38 / 43 °F
Wind: 5 mph from Southeast

Location: Vancouver - Pearson Airpark

Current Time: Jan 20, 2017 at 12:04:47 pm

Latest Report: Jan 20, 2017 at 10:53 am


Visibility: 10 mi

Pressure: 29.11 "Hg

Humidity: 79%

Dew Point: 36 °F

Location of VancouverLocation

Past Weather in Vancouver — Graph

°F

Vancouver Temperature Yesterday

Maximum temperature yesterday: 51 °F (at 11:53 am)
Minimum temperature yesterday: 37 °F (at 6:53 am)
Average temperature yesterday: 43 °F

High & Low Weather Summary for the Past Weeks

 TemperatureHumidityPressure
High51 °F (Jan 19, 11:53 am)100% (Jan 12, 7:58 am)30.47 "Hg (Jan 12, 7:58 am)
Low9 °F (Jan 13, 4:53 am)38% (Jan 5, 2:53 pm)29.10 "Hg (Jan 20, 7:53 am)
Average30 °F79%29.87 "Hg
* Reported Jan 5 10:53 am — Jan 20 10:53 am, Vancouver, Weather by CustomWeather, © 2017

Note: Actual official high and low records may vary slightly from our data, if they occured in-between our weather recording intervals... More about our weather records

Advertising

Vancouver Weather History for the Previous 24 Hours

Scroll right to see more
 ConditionsComfort  
Time TempWeatherWind HumidityBarometerVisibility
10:53 am
Fri, Jan 20
42 °FLight rain. Mostly cloudy.5 mph79%29.11 "Hg10 mi
9:53 am41 °FLight rain. Mostly cloudy.3 mph82%29.11 "Hg10 mi
8:53 am40 °FMore clouds than sun.8 mph80%29.10 "Hg10 mi
7:53 am40 °FLight rain. Mostly cloudy.7 mph83%29.10 "Hg10 mi
6:53 am40 °FMostly cloudy.8 mph77%29.14 "Hg10 mi
5:53 am36 °FOvercast.No wind92%29.15 "Hg10 mi
4:53 am37 °FOvercast.No wind89%29.18 "Hg10 mi
3:53 am36 °FMostly cloudy.No wind89%29.23 "Hg10 mi
2:53 am38 °FPassing clouds.No wind86%29.28 "Hg10 mi
1:53 am39 °FPassing clouds.No wind86%29.31 "Hg10 mi
12:53 am38 °FMostly cloudy.3 mph90%29.36 "Hg10 mi
11:53 pm
Thu, Jan 19
38 °FOvercast.7 mph90%29.40 "Hg10 mi
10:53 pm37 °FPassing clouds.6 mph93%29.44 "Hg10 mi
9:53 pm38 °FPassing clouds.10 mph90%29.47 "Hg10 mi
8:53 pm39 °FOvercast.9 mph89%29.50 "Hg10 mi
7:53 pm39 °FMostly cloudy.8 mph89%29.53 "Hg10 mi
6:53 pm40 °FOvercast.7 mph86%29.54 "Hg10 mi
5:53 pm45 °FMostly cloudy.8 mph76%29.56 "Hg10 mi
4:53 pm50 °FPartly sunny.7 mph66%29.56 "Hg10 mi
3:53 pm51 °FBroken clouds.8 mph63%29.57 "Hg10 mi
2:53 pm51 °FCloudy.10 mph66%29.57 "Hg10 mi
1:53 pm51 °FScattered clouds.7 mph66%29.57 "Hg10 mi
12:53 pm51 °FMostly cloudy.10 mph63%29.59 "Hg10 mi
Weather by CustomWeather, © 2017

See weather overviewHow to use our weather pages